Preview of NWS' New Version of Forecast
This preview is not operational and should not be used for support decisions.

Regional Weather Roundup (RWR)

Issued by National Weather Service (NWS)

                            
000
ASUS46 KPQR 161910
RWROR 

OREGON REGIONAL WEATHER ROUNDUP
NATIONAL WEATHER SERVICE PORTLAND OR
1200 PM PDT FRI AUG 16 2019

NOTE: "FAIR" INDICATES FEW OR NO CLOUDS BELOW 12,000 FEET WITH
NO SIGNIFICANT WEATHER AND/OR OBSTRUCTIONS TO VISIBILITY.

ORZ001>013-162000-
NORTHWEST OREGON

  
CITY           SKY/WX    TMP DP  RH WIND       PRES   REMARKS
ASTORIA        CLOUDY    64  55  72 W13       30.16S                  
TILLAMOOK      CLOUDY    68  50  52 NW12      30.18S                  
NEWPORT        CLOUDY    68  54  60 NW13      30.20S                  
PORTLAND       PTSUNNY   69  50  50 VRB5      30.15F                  
VANCOUVER WA   CLOUDY    68  48  48 VRB5      30.15F                  
SCAPPOOSE      CLOUDY    68  52  56 E7        30.14F                  
HILLSBORO      CLOUDY    68  50  52 N7        30.15F                  
AURORA         PTSUNNY   71  49  45 NW6       30.16F                  
MCMINNVILLE    CLOUDY    69  50  50 VRB3      30.15F                  
SALEM          MOSUNNY   68  48  48 NW3       30.14F                  
CORVALLIS      PTSUNNY   69  51  52 VRB6      30.16F                  
EUGENE         MOSUNNY   72  51  47 N9G20     30.15F                  
$$

ORZ021-028-162000-
SOUTHWEST OREGON

  
CITY           SKY/WX    TMP DP  RH WIND       PRES   REMARKS
NORTH BEND     SUNNY     70  54  56 N20       30.16F                  
BROOKINGS      SUNNY     81  56  42 W13G18    30.00F                  
ROSEBURG       CLOUDY    69  55  60 N7        30.13F                  
SEXTON SUMMIT  SUNNY     68  52  56 VRB3      30.17F                  
GRANTS PASS    FAIR      79  52  38 VRB3      30.09F                  
MEDFORD        SUNNY     77  45  32 NE3       30.06F                  
$$

ORZ014>016-041-162000-
COLUMBIA GORGE

  
CITY           SKY/WX    TMP DP  RH WIND       PRES   REMARKS
TROUTDALE      CLOUDY    70  50  49 VRB5      30.15F                  
HOOD RIVER     SUNNY     68  46  45 W16G25    30.07F                  
THE DALLES     SUNNY     74  48  39 NW15      30.02F                  
$$

ORZ029>031-041-044-049-050-061>064-502-503-505>511-162000-
EASTERN OREGON

  
CITY           SKY/WX    TMP DP  RH WIND       PRES   REMARKS
MADRAS         SUNNY     73  39  29 W6        30.09F                  
REDMOND        SUNNY     77  31  18 VRB6      30.09F                  
BEND           SUNNY     75  27  16 VRB6      30.10F                  
PRINEVILLE     SUNNY     73  25  16 VRB6      30.10F                  
KLAMATH FALLS  SUNNY     74  36  25 CALM      30.13F                  
LAKEVIEW       SUNNY     76  42  29 E6        30.15F                  
HERMISTON      SUNNY     81  49  32 SW13      29.98F                  
PENDLETON      SUNNY     78  45  30 W8G16     30.00F                  
JOHN DAY       SUNNY     74  36  25 NW8       30.10F                  
MEACHAM        SUNNY     69  46  43 VRB7      30.09F                  
LA GRANDE      SUNNY     75  45  34 W7G16     30.05F                  
BAKER CITY     SUNNY     77  47  34 VRB5      30.06F                  
BURNS          SUNNY     76  35  22 CALM      30.11F                  
ROME             N/A     81  36  19 VRB3      30.07F                  
ONTARIO        SUNNY     85  43  22 SW7       29.99F                  
$$